Fowler
DateTemperatureDew Point
09/05 - 07:45 PM69.6°58.1°
09/05 - 07:30 PM70.8°59.4°
09/05 - 07:15 PM72.4°60.4°
09/05 - 07:00 PM74.0°60.7°
09/05 - 06:45 PM75.7°61.9°
09/05 - 06:30 PM77.3°62.2°
09/05 - 06:15 PM78.6°62.6°
09/05 - 06:00 PM80.0°60.5°
09/05 - 05:45 PM81.1°59.2°
09/05 - 05:30 PM82.2°60.6°
09/05 - 05:15 PM83.1°57.9°
09/05 - 05:00 PM83.5°57.3°
09/05 - 04:45 PM83.8°57.8°
09/05 - 04:30 PM84.2°58.6°
09/05 - 04:15 PM84.6°58.4°
09/05 - 04:00 PM85.0°57.5°
09/05 - 03:45 PM85.2°58.4°
09/05 - 03:30 PM85.2°58.6°
09/05 - 03:15 PM85.5°57.8°
09/05 - 03:00 PM85.8°58.2°
09/05 - 02:45 PM85.9°58.8°
09/05 - 02:30 PM85.8°59.3°
09/05 - 02:15 PM86.0°58.9°
09/05 - 02:00 PM86.0°58.9°
09/05 - 01:45 PM85.9°59.2°
09/05 - 01:30 PM85.2°58.8°
09/05 - 01:15 PM84.7°59.0°
09/05 - 01:00 PM84.4°58.6°
09/05 - 12:45 PM83.7°58.7°
09/05 - 12:30 PM82.4°56.6°
09/05 - 12:15 PM82.2°56.9°
09/05 - 12:00 PM82.0°57.1°
09/05 - 11:45 AM80.3°56.3°
09/05 - 11:30 AM79.4°56.9°
09/05 - 11:15 AM77.8°55.6°
09/05 - 11:00 AM76.7°55.7°
09/05 - 10:45 AM74.7°55.3°
09/05 - 10:30 AM73.9°56.3°
09/05 - 10:15 AM73.0°55.4°
09/05 - 10:00 AM71.9°55.4°
09/05 - 09:45 AM69.9°54.8°
09/05 - 09:30 AM69.0°54.4°
09/05 - 09:15 AM67.7°53.8°
09/05 - 09:00 AM66.6°54.1°
09/05 - 08:45 AM65.4°52.7°
09/05 - 08:30 AM63.6°52.6°
09/05 - 08:15 AM62.3°52.9°
09/05 - 08:00 AM60.6°53.1°
09/05 - 07:45 AM58.6°52.8°
09/05 - 07:30 AM56.9°52.8°
09/05 - 07:15 AM55.7°52.0°
09/05 - 07:00 AM54.8°51.2°
09/05 - 06:45 AM54.4°50.5°
09/05 - 06:30 AM54.3°50.1°
09/05 - 06:15 AM54.5°49.8°
09/05 - 06:00 AM54.7°49.7°
09/05 - 05:45 AM54.9°49.7°
09/05 - 05:30 AM55.5°49.7°
09/05 - 05:15 AM56.3°49.9°
09/05 - 05:00 AM57.0°50.1°
09/05 - 04:45 AM57.5°50.2°
09/05 - 04:30 AM57.8°50.4°
09/05 - 04:15 AM57.9°50.3°
09/05 - 04:00 AM58.0°50.3°
09/05 - 03:45 AM58.2°50.3°
09/05 - 03:30 AM58.7°50.1°
09/05 - 03:15 AM59.3°50.0°
09/05 - 03:00 AM59.7°49.8°
09/05 - 02:45 AM60.0°49.8°
09/05 - 02:30 AM60.8°49.9°
09/05 - 02:15 AM61.6°49.4°
09/05 - 02:00 AM62.3°49.0°
09/05 - 01:45 AM62.7°49.1°
09/05 - 01:30 AM63.3°49.5°
09/05 - 01:15 AM64.3°50.2°
09/05 - 01:00 AM65.4°50.2°
09/05 - 12:45 AM66.4°48.5°
09/05 - 12:30 AM67.2°48.1°
09/05 - 12:15 AM67.8°47.7°
09/05 - 12:00 AM68.4°47.6°
09/04 - 11:45 PM68.7°47.9°
09/04 - 11:30 PM68.7°48.7°
09/04 - 11:15 PM68.9°49.2°
09/04 - 11:00 PM69.1°49.9°
09/04 - 10:45 PM69.5°49.5°
09/04 - 10:30 PM69.9°49.7°
09/04 - 10:15 PM69.8°49.8°
09/04 - 10:00 PM69.7°50.0°
09/04 - 09:45 PM68.6°50.1°
09/04 - 09:30 PM68.1°51.9°
09/04 - 09:15 PM68.2°51.0°
09/04 - 09:00 PM68.4°52.6°
09/04 - 08:45 PM69.2°52.4°
09/04 - 08:30 PM70.0°52.7°
09/04 - 08:15 PM71.2°53.0°
09/04 - 08:00 PM72.6°52.4°
09/04 - 07:45 PM73.4°52.3°
09/04 - 07:30 PM74.2°52.2°
09/04 - 07:15 PM75.1°52.8°
09/04 - 07:00 PM76.3°53.0°
09/04 - 06:45 PM77.1°53.1°
09/04 - 06:30 PM77.9°54.5°
09/04 - 06:15 PM78.6°54.6°
09/04 - 06:00 PM79.2°55.6°
09/04 - 05:45 PM79.7°55.6°
09/04 - 05:30 PM80.2°56.1°
09/04 - 05:15 PM80.5°56.9°
09/04 - 05:00 PM80.9°57.7°
09/04 - 04:45 PM81.0°58.4°
09/04 - 04:30 PM81.2°57.7°
09/04 - 04:15 PM81.2°57.8°
09/04 - 04:00 PM81.1°58.6°
09/04 - 03:45 PM81.1°57.6°
09/04 - 03:30 PM81.3°58.3°
09/04 - 03:15 PM81.3°59.2°
09/04 - 03:00 PM81.4°59.6°
09/04 - 02:45 PM81.1°59.8°
09/04 - 02:30 PM81.1°59.7°
09/04 - 02:15 PM81.1°60.0°
09/04 - 02:00 PM80.4°59.8°
09/04 - 01:45 PM80.5°59.6°
09/04 - 01:30 PM80.8°61.0°
09/04 - 01:15 PM79.4°60.4°
09/04 - 01:00 PM80.0°61.2°
09/04 - 12:45 PM81.1°61.5°
09/04 - 12:30 PM79.4°60.4°
09/04 - 12:15 PM78.5°60.7°
09/04 - 12:00 PM78.6°60.5°
09/04 - 11:45 AM76.6°61.1°
09/04 - 11:30 AM75.8°60.4°
09/04 - 11:15 AM76.0°61.0°
09/04 - 11:00 AM77.1°61.7°
09/04 - 10:45 AM75.8°61.5°
09/04 - 10:30 AM74.9°60.9°
09/04 - 10:15 AM74.1°61.1°
09/04 - 10:00 AM73.2°61.1°
09/04 - 09:45 AM72.2°60.9°
09/04 - 09:30 AM71.1°61.1°
09/04 - 09:15 AM70.2°60.7°
09/04 - 09:00 AM69.3°60.9°
09/04 - 08:45 AM68.3°60.2°
09/04 - 08:30 AM67.5°59.7°
09/04 - 08:15 AM66.5°60.1°
09/04 - 08:00 AM65.6°60.0°
09/04 - 07:45 AM64.3°59.4°
09/04 - 07:30 AM62.6°59.1°
09/04 - 07:15 AM61.1°58.5°
09/04 - 07:00 AM60.0°57.4°
09/04 - 06:45 AM59.6°56.7°
09/04 - 06:30 AM59.6°56.2°
09/04 - 06:15 AM59.9°56.4°
09/04 - 06:00 AM60.3°56.9°
09/04 - 05:45 AM60.5°57.1°
09/04 - 05:30 AM60.6°57.3°
09/04 - 05:15 AM60.6°57.3°
09/04 - 05:00 AM60.9°57.5°
09/04 - 04:45 AM61.3°57.7°
09/04 - 04:30 AM61.6°58.0°
09/04 - 04:15 AM61.8°58.4°
09/04 - 04:00 AM62.5°57.7°
09/04 - 03:45 AM62.3°57.4°
09/04 - 03:30 AM62.2°57.4°
09/04 - 03:15 AM62.1°57.6°
09/04 - 03:00 AM61.9°57.9°
09/04 - 02:45 AM61.9°58.0°
09/04 - 02:30 AM62.6°58.2°
09/04 - 02:15 AM63.8°58.8°
09/04 - 02:00 AM64.8°57.6°
09/04 - 01:45 AM65.0°57.1°
09/04 - 01:30 AM65.5°57.1°
09/04 - 01:15 AM65.8°57.2°
09/04 - 01:00 AM66.2°57.2°
09/04 - 12:45 AM66.8°57.2°
09/04 - 12:30 AM67.2°57.1°
09/04 - 12:15 AM67.5°57.0°
09/04 - 12:00 AM67.8°56.7°
09/03 - 11:45 PM68.3°56.5°
09/03 - 11:30 PM68.2°56.3°
09/03 - 11:15 PM68.2°55.7°
09/03 - 11:00 PM68.9°55.2°
09/03 - 10:45 PM69.6°54.9°
09/03 - 10:30 PM70.1°54.6°
09/03 - 10:15 PM70.1°53.9°
09/03 - 10:00 PM70.0°53.2°
09/03 - 09:45 PM69.1°51.9°
09/03 - 09:30 PM66.8°51.8°
09/03 - 09:15 PM66.3°54.4°
09/03 - 09:00 PM66.7°55.7°
09/03 - 08:45 PM67.2°55.7°
09/03 - 08:30 PM67.6°55.4°